This is the latest recevied weather packets stored in our database for station/object WD4IXD. If no packets are shown the sender has not sent any weather packets the latest 10 day(s).
| Time | Temp. | Humidity | Pressure | Rain* | Wind** | Luminosity | Snow |
|---|---|---|---|---|---|---|---|
| 1777767604 | 21.67° C | 11% | 1017.4 hPa | 0 mm | - | 264 W/m² | - |
| 1777767315 | 21.67° C | 11% | 1017.5 hPa | 0 mm | - | 283 W/m² | - |
| 1777767004 | 21.67° C | 11% | 1017.5 hPa | 0 mm | - | 302 W/m² | - |
| 1777766715 | 21.67° C | 9% | 1017.5 hPa | 0 mm | - | 320 W/m² | - |
| 1777766404 | 21.67° C | 10% | 1017.5 hPa | 0 mm | - | 336 W/m² | - |
| 1777766115 | 21.67° C | 10% | 1017.5 hPa | 0 mm | - | 353 W/m² | - |
| 1777765804 | 21.67° C | 9% | 1017.6 hPa | 0 mm | - | 371 W/m² | - |
| 1777765515 | 21.67° C | 9% | 1017.6 hPa | 0 mm | - | 390 W/m² | - |
| 1777765215 | 22.22° C | 9% | 1017.7 hPa | 0 mm | - | 408 W/m² | - |
| 1777764904 | 22.22° C | 8% | 1017.6 hPa | 0 mm | - | 425 W/m² | - |
| 1777764615 | 22.22° C | 9% | 1017.6 hPa | 0 mm | - | 445 W/m² | - |
| 1777764304 | 22.22° C | 9% | 1017.7 hPa | 0 mm | - | 461 W/m² | - |
| 1777764015 | 22.22° C | 8% | 1017.8 hPa | 0 mm | - | 478 W/m² | - |
| 1777763703 | 22.78° C | 8% | 1017.8 hPa | 0 mm | - | 494 W/m² | - |
| 1777763415 | 22.78° C | 10% | 1017.9 hPa | 0 mm | - | 512 W/m² | - |
| 1777763104 | 23.33° C | 8% | 1017.8 hPa | 0 mm | - | 527 W/m² | - |
| 1777762815 | 23.89° C | 10% | 1017.8 hPa | 0 mm | - | 548 W/m² | - |
| 1777762503 | 23.33° C | 9% | 1017.9 hPa | 0 mm | - | 564 W/m² | - |
| 1777762215 | 23.33° C | 9% | 1017.9 hPa | 0 mm | - | 577 W/m² | - |
| 1777761915 | 22.78° C | 8% | 1017.9 hPa | 0 mm | - | 591 W/m² | - |
| 1777761603 | 22.78° C | 8% | 1018.1 hPa | 0 mm | - | 606 W/m² | - |
| 1777761315 | 22.22° C | 6% | 1018.2 hPa | 0 mm | - | 624 W/m² | - |
| 1777761003 | 23.33° C | 7% | 1018.2 hPa | 0 mm | - | 640 W/m² | - |
| 1777760715 | 23.33° C | 9% | 1018.2 hPa | 0 mm | - | 656 W/m² | - |
| 1777760404 | 23.89° C | 9% | 1018.2 hPa | 0 mm | - | 675 W/m² | - |
* Rain latest hour (hover to see other rain measurements)
** Current wind speed in m/s (hover to see current wind gust speed)